Home > Weather > Ann Arbor > Past weeks

Flag for USA Weather for the Past 2 Weeks in Ann Arbor, Michigan, USA

Now
45 °F

Overcast.


Feels Like: 43 °F
Forecast: 41 / 53 °F
Wind: 5 mph from Northeast

Location: Ann Arbor Municipal Airport

Current Time: Apr 29, 2016 at 10:31:12 AM

Latest Report: Apr 29, 2016 at 9:53 AM


Visibility: 10 mi

Pressure: 30.06 "Hg

Humidity: 65%

Dew Point: 34 °F

Location of Ann ArborLocation

Historic Weather in Ann Arbor — Graph

°F

Ann Arbor Temperature Yesterday

Maximum temperature yesterday: 48 °F (at 6:53 PM)
Minimum temperature yesterday: 40 °F (at 7:53 AM)
Average temperature yesterday: 45 °F

High & Low Weather Summary for the Past Weeks

 TemperatureHumidityPressure
High81 °F (Apr 18, 2:53 PM)100% (Apr 22, 1:01 AM)30.47 "Hg (Apr 22, 1:01 AM)
Low29 °F (Apr 24, 6:53 AM)21% (Apr 16, 3:53 PM)29.62 "Hg (Apr 26, 3:53 AM)
Average53 °F58%30.11 "Hg
* Reported Apr 14 8:53 AM — Apr 29 8:53 AM, Ann Arbor, Weather by CustomWeather, © 2016

Note: Actual official high and low records may vary slightly from our data, if they occured in-between our weather recording intervals... More about our weather records

Advertising

Ann Arbor Weather History for the Previous 24 Hours

Scroll right to see more
 ConditionsComfort  
Time TempWeatherWind HumidityBarometerVisibility
8:53 AM
Fri, Apr 29
45 °FOvercast.8 mph63%30.05 "Hg10 mi
7:53 AM44 °FOvercast.8 mph58%30.04 "Hg10 mi
6:53 AM44 °FOvercast.6 mph58%30.03 "Hg10 mi
5:53 AM45 °FOvercast.5 mph56%30.01 "Hg10 mi
4:53 AM45 °FOvercast.3 mph56%30.03 "Hg10 mi
3:53 AM45 °FOvercast.6 mph58%30.01 "Hg10 mi
2:53 AM45 °FOvercast.5 mph56%30.01 "Hg10 mi
1:53 AM46 °FOvercast.5 mph54%30.01 "Hg10 mi
12:53 AM46 °FOvercast.6 mph54%30.02 "Hg10 mi
11:53 PM
Thu, Apr 28
47 °FMostly cloudy.5 mph50%30.02 "Hg10 mi
10:53 PM47 °FOvercast.8 mph52%30.01 "Hg10 mi
9:53 PM48 °FOvercast.8 mph54%30.01 "Hg10 mi
8:53 PM48 °FOvercast.5 mph56%30.00 "Hg10 mi
7:53 PM48 °FOvercast.8 mph54%29.99 "Hg10 mi
6:53 PM48 °FOvercast.9 mph56%29.98 "Hg10 mi
5:53 PM47 °FOvercast.12 mph59%29.98 "Hg10 mi
4:53 PM47 °FOvercast.10 mph59%29.98 "Hg10 mi
3:53 PM47 °FLight rain. Overcast.10 mph64%29.97 "Hg10 mi
2:53 PM46 °FLight rain. Overcast.12 mph61%29.97 "Hg10 mi
1:53 PM45 °FLight rain. Overcast.14 mph68%29.97 "Hg9 mi
12:53 PM44 °FLight rain. Overcast.15 mph68%29.97 "Hg10 mi
11:53 AM44 °FMostly cloudy.13 mph73%29.98 "Hg10 mi
10:53 AM42 °FLight rain. Mostly cloudy.10 mph76%29.98 "Hg10 mi
Weather by CustomWeather, © 2016

See weather overviewHow to use our weather pages